Date String (YYYY-MM-DD hh:mm:ss) UTC,Instrument flags,absolute air pressure of the measurement (hPa),sample flow rate (lpm),inlet stack bypass flow (lpm),air temperature of the measurement (°C),ambient temperature measured by the external sensor (°C),aerosol sample conditioner tube jacket temperature (°C),OPC LED temperature (°C),internal box temperature (°C),relative humidity of the measurement (%),span deviation,mass concentration of particles derived from Lorenz-Mie calculation of OPC scattering (μg/m³),mass concentration of particles derived from Lorenz-Mie calculation of OPC scattering (μg/m³),mass concentration of particles derived from Lorenz-Mie calculation of OPC scattering (μg/m³)
DateTimeUTC,F1_M11,P_M11,Q1_M11,Q2_M11,T1_M11,T2_M11,T3_M11,T4_M11,T5_M11,U1_M11,ZSPAN_M11,X0_M11,X2_M11,X1_M11
2024-01-29 16:00:00,SystemResetWarning,0838.0,5.01,000.00,022.5,021.9,000.0,030.7,024.1,16.5,0000.0,0001.89,0000.60,0000.44
2024-01-29 16:01:00,SystemResetWarning,0838.0,5.00,000.00,022.6,021.9,000.0,030.7,024.1,16.5,0000.0,0002.13,0000.58,0000.43
2024-01-29 16:02:00,SystemResetWarning,0838.0,5.00,000.00,022.6,021.9,000.0,030.7,024.1,16.3,0000.0,0002.14,0000.58,0000.42
2024-01-29 16:03:00,SystemResetWarning,0838.0,5.00,000.00,022.6,021.9,000.0,030.8,024.1,16.2,0000.0,0002.11,0000.56,0000.41
2024-01-29 16:04:00,SystemResetWarning,0838.0,5.00,000.00,022.6,021.9,000.0,030.8,024.2,16.2,0000.0,0002.16,0000.57,0000.41
2024-01-29 16:05:00,SystemResetWarning,0838.0,5.00,000.00,022.6,022.0,000.0,030.8,024.2,16.6,0000.0,0002.19,0000.56,0000.39
2024-01-29 16:06:00,SystemResetWarning,0838.0,4.99,000.00,022.6,022.0,000.0,030.8,024.2,16.6,0000.0,0002.40,0000.57,0000.39
2024-01-29 16:07:00,SystemResetWarning,0838.0,5.00,000.00,022.7,022.0,000.0,030.8,024.2,16.7,0000.0,0002.32,0000.56,0000.39
2024-01-29 16:08:00,SystemResetWarning,0838.0,5.00,000.00,022.7,022.0,000.0,030.8,024.2,16.6,0000.0,0002.16,0000.53,0000.38
2024-01-29 16:09:00,SystemResetWarning,0838.0,5.01,000.00,022.7,022.1,000.0,030.8,024.3,16.1,0000.0,0002.39,0000.55,0000.39
2024-01-29 16:10:00,SystemResetWarning,0838.0,5.00,000.00,022.7,022.1,000.0,030.9,024.3,16.5,0000.0,0002.75,0000.57,0000.39
2024-01-29 16:11:00,SystemResetWarning,0838.0,5.00,000.00,022.7,022.1,000.0,030.9,024.3,17.0,0000.0,0002.23,0000.59,0000.40
2024-01-29 16:12:00,SystemResetWarning,0838.0,5.00,000.00,022.8,022.1,000.0,030.9,024.3,17.0,0000.0,0001.87,0000.59,0000.39
2024-01-29 16:13:00,SystemResetWarning,0838.0,5.00,000.00,022.8,022.1,000.0,030.9,024.3,16.5,0000.0,0002.10,0000.64,0000.40
2024-01-29 16:14:00,SystemResetWarning,0838.0,5.00,000.00,022.8,022.2,000.0,030.9,024.3,16.4,0000.0,0002.36,0000.65,0000.40
2024-01-29 16:15:00,SystemResetWarning,0838.0,5.00,000.00,022.8,022.2,000.0,030.9,024.3,16.0,0000.0,0002.43,0000.65,0000.41
2024-01-29 16:16:00,SystemResetWarning,0838.0,4.99,000.00,022.8,022.2,000.0,031.0,024.4,16.0,0000.0,0002.46,0000.69,0000.41
2024-01-29 16:17:00,SystemResetWarning,0838.0,5.00,000.00,022.8,022.2,000.0,031.0,024.4,16.3,0000.0,0002.58,0000.68,0000.41
2024-01-29 16:18:00,SystemResetWarning,0837.9,4.99,000.00,022.9,022.2,000.0,031.0,024.4,16.0,0000.0,0002.71,0000.68,0000.40
2024-01-29 16:19:00,SystemResetWarning,0837.9,5.00,000.00,022.9,022.2,000.0,031.0,024.4,15.9,0000.0,0002.74,0000.70,0000.40
2024-01-29 16:20:00,SystemResetWarning,0837.9,5.00,000.00,022.9,022.3,000.0,031.0,024.5,15.8,0000.0,0002.76,0000.68,0000.40
2024-01-29 16:21:00,SystemResetWarning,0838.0,5.00,000.00,022.9,022.3,000.0,031.0,024.5,16.0,0000.0,0002.96,0000.65,0000.39
2024-01-29 16:22:00,SystemResetWarning,0838.0,5.00,000.00,022.9,022.3,000.0,031.1,024.5,15.9,0000.0,0002.93,0000.65,0000.38
2024-01-29 16:23:00,SystemResetWarning,0838.1,5.00,000.00,022.9,022.3,000.0,031.1,024.5,15.8,0000.0,0002.87,0000.65,0000.38
2024-01-29 16:24:00,SystemResetWarning,0838.1,5.00,000.00,023.0,022.3,000.0,031.1,024.5,15.3,0000.0,0002.65,0000.61,0000.38
2024-01-29 16:25:00,SystemResetWarning,0838.0,5.01,000.00,023.0,022.4,000.0,031.1,024.5,15.1,0000.0,0002.44,0000.62,0000.38
2024-01-29 16:26:00,SystemResetWarning,0838.0,5.00,000.00,023.0,022.4,000.0,031.1,024.6,15.1,0000.0,0002.38,0000.61,0000.39
2024-01-29 16:27:00,SystemResetWarning,0837.9,4.99,000.00,023.0,022.4,000.0,031.1,024.6,15.6,0000.0,0002.29,0000.56,0000.39
2024-01-29 16:28:00,SystemResetWarning,0837.9,5.00,000.00,023.0,022.4,000.0,031.2,024.6,15.6,0000.0,0001.95,0000.55,0000.39
2024-01-29 16:29:00,SystemResetWarning,0838.0,5.00,000.00,023.0,022.4,000.0,031.2,024.6,15.5,0000.0,0001.75,0000.53,0000.40
2024-01-29 16:30:00,SystemResetWarning,0838.0,5.00,000.00,023.1,022.4,000.0,031.2,024.6,15.6,0000.0,0001.71,0000.52,0000.41
2024-01-29 16:31:00,SystemResetWarning,0838.0,5.00,000.00,023.1,022.5,000.0,031.2,024.6,15.5,0000.0,0001.70,0000.53,0000.41
2024-01-29 16:32:00,SystemResetWarning,0838.0,5.00,000.00,023.1,022.5,000.0,031.2,024.6,15.7,0000.0,0000.91,0000.56,0000.44
2024-01-29 16:33:00,SystemResetWarning,0838.0,5.01,000.00,023.1,022.5,000.0,031.2,024.7,15.5,0000.0,0000.90,0000.57,0000.44
2024-01-29 16:34:00,SystemResetWarning,0838.0,5.01,000.00,023.1,022.5,000.0,031.3,024.7,15.4,0000.0,0000.90,0000.58,0000.46
2024-01-29 16:35:00,SystemResetWarning,0838.1,5.01,000.00,023.2,022.5,000.0,031.3,024.7,15.2,0000.0,0000.94,0000.61,0000.48
2024-01-29 16:36:00,SystemResetWarning,0838.0,5.00,000.00,023.2,022.6,000.0,031.3,024.8,15.3,0000.0,0000.91,0000.61,0000.50
2024-01-29 16:37:00,SystemResetWarning,0838.0,5.00,000.00,023.2,022.6,000.0,031.3,024.8,15.2,0000.0,0001.03,0000.63,0000.52
2024-01-29 16:38:00,SystemResetWarning,0837.9,5.00,000.00,023.2,022.6,000.0,031.3,024.8,15.4,0000.0,0001.09,0000.65,0000.53
2024-01-29 16:39:00,SystemResetWarning,0837.9,5.00,000.00,023.2,022.6,000.0,031.3,024.8,15.4,0000.0,0001.24,0000.69,0000.56
2024-01-29 16:40:00,SystemResetWarning,0837.9,5.00,000.00,023.2,022.6,000.0,031.4,024.8,15.5,0000.0,0001.44,0000.74,0000.58
2024-01-29 16:41:00,SystemResetWarning,0837.9,5.01,000.00,023.3,022.7,000.0,031.4,024.8,15.9,0000.0,0001.79,0000.78,0000.60
2024-01-29 16:42:00,SystemResetWarning,0837.9,5.01,000.00,023.3,022.7,000.0,031.4,024.9,15.8,0000.0,0002.52,0000.80,0000.62
2024-01-29 16:43:00,SystemResetWarning,0838.0,5.01,000.00,023.3,022.7,000.0,031.4,024.9,15.7,0000.0,0002.47,0000.79,0000.63
2024-01-29 16:44:00,SystemResetWarning,0838.0,4.99,000.00,023.3,022.7,000.0,031.4,024.9,15.9,0000.0,0002.55,0000.82,0000.64
2024-01-29 16:45:00,SystemResetWarning,0838.0,5.00,000.00,023.3,022.7,000.0,031.5,024.9,15.4,0000.0,0002.62,0000.85,0000.64
2024-01-29 16:46:00,SystemResetWarning,0838.1,4.99,000.00,023.4,022.8,000.0,031.5,024.9,15.5,0000.0,0002.60,0000.85,0000.64
2024-01-29 16:47:00,SystemResetWarning,0838.1,5.00,000.00,023.4,022.8,000.0,031.5,024.9,15.3,0000.0,0002.60,0000.86,0000.64
2024-01-29 16:48:00,SystemResetWarning,0838.1,5.00,000.00,023.4,022.8,000.0,031.5,025.0,15.4,0000.0,0002.59,0000.87,0000.65
2024-01-29 16:49:00,SystemResetWarning,0838.1,5.01,000.00,023.4,022.8,000.0,031.5,025.0,15.6,0000.0,0002.68,0000.85,0000.65
2024-01-29 16:50:00,SystemResetWarning,0838.1,5.00,000.00,023.4,022.9,000.0,031.5,025.0,15.7,0000.0,0003.60,0000.85,0000.65
2024-01-29 16:51:00,SystemResetWarning,0838.1,5.00,000.00,023.5,022.9,000.0,031.6,025.0,15.5,0000.0,0003.37,0000.81,0000.65
2024-01-29 16:52:00,SystemResetWarning,0838.0,5.00,000.00,023.5,022.9,000.0,031.6,025.0,15.8,0000.0,0003.31,0000.80,0000.65
2024-01-29 16:53:00,SystemResetWarning,0838.0,5.00,000.00,023.5,022.9,000.0,031.6,025.1,15.7,0000.0,0002.37,0000.80,0000.65
2024-01-29 16:54:00,SystemResetWarning,0837.9,5.01,000.00,023.5,022.9,000.0,031.6,025.1,15.8,0000.0,0003.34,0000.85,0000.65
2024-01-29 16:55:00,SystemResetWarning,0838.0,5.00,000.00,023.5,023.0,000.0,031.6,025.1,15.6,0000.0,0003.51,0000.87,0000.65
2024-01-29 16:56:00,SystemResetWarning,0838.0,5.00,000.00,023.6,023.0,000.0,031.7,025.1,15.5,0000.0,0003.52,0000.87,0000.67
2024-01-29 16:57:00,SystemResetWarning,0838.0,5.00,000.00,023.6,023.0,000.0,031.7,025.1,15.4,0000.0,0003.56,0000.85,0000.68
2024-01-29 16:58:00,SystemResetWarning,0838.0,5.00,000.00,023.6,023.0,000.0,031.7,025.1,15.4,0000.0,0003.59,0000.86,0000.68
2024-01-29 16:59:00,SystemResetWarning,0838.0,5.00,000.00,023.6,023.0,000.0,031.7,025.1,15.4,0000.0,0003.91,0000.89,0000.69
